Weather History for Batman, Turkey

Change the Weather History Date:

Friday, October 5, 2012

  Actual Average (LTCC) Record (LTCC)
Temperature  
Mean Temperature 71 °F -  
Max Temperature 87 °F 82 °F 87 °F (1998)
Min Temperature 55 °F 54 °F 46 °F (2011)
Cooling Degree Days 6    
Growing Degree Days 21 (Base 50)    
Moisture  
Dew Point 42 °F    
Average Humidity 39    
Maximum Humidity 72    
Minimum Humidity 16    
Precipitation  
Precipitation 0.00 in - - ()
Sea Level Pressure  
Sea Level Pressure 29.92 in    
Wind  
Wind Speed 6 mph ()    
Max Wind Speed 10 mph    
Max Gust Speed -    
Visibility 6.2 miles    
Events      
Averages and records for this station are not official NWS values.
T = Trace of Precipitation, MM = Missing Value Source: Averaged Metar Reports

Daily Weather History Graph

Daily Weather History Graph

Search for Another Location

Airport:

Trip Planner

Search our weather history database for the weather conditions in past years. The results will help you decide how hot, cold, wet, or windy it might be!

Date:

Astronomy

Oct. 05, 2012 Rise Set
Actual Time 6:14 AM EEST 5:52 PM EEST
Civil Twilight 5:48 AM EEST 6:18 PM EEST
Nautical Twilight 5:18 AM EEST 6:48 PM EEST
Astronomical Twilight 4:47 AM EEST 7:19 PM EEST
Moon 9:02 PM EEST (10/5) 10:59 AM EEST (10/5)
Length of Visible Light 12h 29m
Length of Day
11h 37m
Waning Gibbous, 76% of the Moon is Illuminated
Oct 5
Waning Gibbous
Oct 8
Last Quarter
Oct 15
New
Oct 22
First Quarter
Oct 29
Full

Hourly Weather History & Observations

Time (EEST) Temp. Dew Point Humidity Pressure Visibility Wind Dir Wind Speed Gust Speed Precip Events Conditions
12:20 AM 62.6 °F 48.2 °F 59% 29.86 in - NE 8.1 mph - N/A   Clear
12:50 AM 62.6 °F 46.4 °F 55% 29.86 in - NE 5.8 mph - N/A   Clear
1:20 AM 62.6 °F 46.4 °F 55% 29.86 in - NNE 6.9 mph - N/A   Clear
1:50 AM 62.6 °F 46.4 °F 55% 29.86 in - NE 6.9 mph - N/A   Clear
2:20 AM 60.8 °F 44.6 °F 55% 29.86 in - NNE 3.5 mph - N/A   Clear
3:20 AM 57.2 °F 44.6 °F 63% 29.86 in - North 5.8 mph - N/A   Clear
3:50 AM 57.2 °F 44.6 °F 63% 29.89 in - NE 8.1 mph - N/A   Clear
4:20 AM 55.4 °F 44.6 °F 67% 29.89 in - NNE 6.9 mph - N/A   Clear
4:50 AM 55.4 °F 46.4 °F 72% 29.89 in - NNE 6.9 mph - N/A   Clear
5:20 AM 55.4 °F 44.6 °F 67% 29.89 in - NNE 6.9 mph - N/A   Clear
5:50 AM 57.2 °F 44.6 °F 63% 29.89 in - ENE 6.9 mph - N/A   Clear
6:20 AM 55.4 °F 44.6 °F 67% 29.92 in - NE 6.9 mph - N/A   Clear
6:50 AM 57.2 °F 46.4 °F 67% 29.92 in - NNE 5.8 mph - N/A   Clear
7:20 AM 60.8 °F 46.4 °F 59% 29.92 in - North 4.6 mph - N/A   Clear
7:50 AM 64.4 °F 46.4 °F 52% 29.92 in - NNW 3.5 mph - N/A   Clear
8:20 AM 66.2 °F 46.4 °F 49% 29.95 in - Variable 1.2 mph - N/A   Clear
8:50 AM 69.8 °F 46.4 °F 43% 29.95 in - West 4.6 mph - N/A   Clear
9:20 AM 71.6 °F 46.4 °F 41% 29.95 in - West 3.5 mph - N/A   Clear
9:50 AM 75.2 °F 44.6 °F 34% 29.95 in - WNW 3.5 mph - N/A   Clear
10:20 AM 80.6 °F 42.8 °F 26% 29.95 in - Variable 1.2 mph - N/A   Clear
10:50 AM 80.6 °F 42.8 °F 26% 29.95 in - West 5.8 mph - N/A   Clear
11:20 AM 82.4 °F 42.8 °F 25% 29.95 in - Variable 4.6 mph - N/A   Clear
11:50 AM 84.2 °F 42.8 °F 23% 29.95 in 6.2 mi WSW 6.9 mph - N/A   Partly Cloudy
12:20 PM 84.2 °F 41.0 °F 22% 29.95 in 6.2 mi WSW 6.9 mph - N/A   Partly Cloudy
12:50 PM 86.0 °F 41.0 °F 20% 29.92 in 6.2 mi WSW 9.2 mph - N/A   Partly Cloudy
1:20 PM 86.0 °F 41.0 °F 20% 29.92 in 6.2 mi SW 9.2 mph - N/A   Partly Cloudy
1:50 PM 86.0 °F 39.2 °F 19% 29.92 in 6.2 mi Variable 5.8 mph - N/A   Partly Cloudy
2:20 PM 87.8 °F 39.2 °F 18% 29.92 in 6.2 mi WSW 4.6 mph - N/A   Scattered Clouds
2:50 PM 87.8 °F 35.6 °F 16% 29.89 in 6.2 mi SW 10.4 mph - N/A   Scattered Clouds
3:20 PM 87.8 °F 37.4 °F 17% 29.89 in 6.2 mi WSW 6.9 mph - N/A   Scattered Clouds
3:50 PM 87.8 °F 37.4 °F 17% 29.89 in 6.2 mi WSW 10.4 mph - N/A   Scattered Clouds
4:20 PM 87.8 °F 35.6 °F 16% 29.92 in 6.2 mi SW 10.4 mph - N/A   Scattered Clouds
4:50 PM 84.2 °F 39.2 °F 20% 29.92 in 6.2 mi WSW 6.9 mph - N/A   Scattered Clouds
5:20 PM 84.2 °F 39.2 °F 20% 29.92 in 6.2 mi SW 6.9 mph - N/A   Scattered Clouds
5:50 PM 80.6 °F 42.8 °F 26% 29.92 in 6.2 mi SW 6.9 mph - N/A   Scattered Clouds
6:20 PM 78.8 °F 41.0 °F 26% 29.92 in - SW 4.6 mph - N/A   Clear
6:50 PM 75.2 °F 39.2 °F 27% 29.95 in - SW 6.9 mph - N/A   Clear
7:20 PM 75.2 °F 41.0 °F 29% 29.95 in - WSW 4.6 mph - N/A   Clear
7:50 PM 73.4 °F 41.0 °F 31% 29.95 in - Variable 1.2 mph - N/A   Clear
8:20 PM 69.8 °F 39.2 °F 33% 29.95 in - Variable 1.2 mph - N/A   Clear
8:50 PM 69.8 °F 39.2 °F 33% 29.95 in - East 4.6 mph - N/A   Clear
9:20 PM 66.2 °F 37.4 °F 35% 29.98 in - North 3.5 mph - N/A   Clear
9:50 PM 64.4 °F 41.0 °F 42% 29.98 in - NNE 6.9 mph - N/A   Clear
10:20 PM 64.4 °F 39.2 °F 40% 29.98 in - NE 8.1 mph - N/A   Clear
10:50 PM 64.4 °F 39.2 °F 40% 29.98 in - NE 5.8 mph - N/A   Clear
11:20 PM 64.4 °F 41.0 °F 42% 29.98 in - NE 4.6 mph - N/A   Clear
11:50 PM 64.4 °F 41.0 °F 42% 29.98 in - NNE 5.8 mph - N/A   Clear